Time,TemperatureF,DewpointF,PressureIn,WindDirection,WindDirectionDegrees,WindSpeedMPH,WindSpeedGustMPH,Humidity,HourlyPrecipIn,Conditions,Clouds,dailyrainin,SoftwareType,DateUTC
2013-05-24 00:07:00,64.4,64.0,29.81,East,85,1.0,-999.0,97,-99.99,,,0.00,weatherlink.com 1.10,2013-05-24 04:07:00,
2013-05-24 00:22:00,64.3,64.0,29.81,SSW,209,0.0,-999.0,97,-99.99,,,0.03,weatherlink.com 1.10,2013-05-24 04:22:00,
2013-05-24 00:37:00,64.1,63.0,29.80,ESE,103,2.0,-999.0,97,-99.99,,,0.04,weatherlink.com 1.10,2013-05-24 04:37:00,
2013-05-24 00:52:00,64.1,63.0,29.79,East,81,0.0,-999.0,97,-99.99,,,0.05,weatherlink.com 1.10,2013-05-24 04:52:00,
2013-05-24 01:07:00,64.0,63.0,29.79,SE,138,0.0,-999.0,97,-99.99,,,0.08,weatherlink.com 1.10,2013-05-24 05:07:00,
2013-05-24 01:22:00,64.0,63.0,29.78,East,84,2.0,-999.0,97,-99.99,,,0.10,weatherlink.com 1.10,2013-05-24 05:22:00,
2013-05-24 01:37:00,64.0,63.0,29.77,East,91,0.0,-999.0,97,-99.99,,,0.12,weatherlink.com 1.10,2013-05-24 05:37:00,
2013-05-24 01:52:00,64.1,64.0,29.77,East,80,0.0,-999.0,98,-99.99,,,0.17,weatherlink.com 1.10,2013-05-24 05:52:00,
2013-05-24 02:07:00,64.0,63.0,29.77,SSE,155,0.0,-999.0,97,-99.99,,,0.23,weatherlink.com 1.10,2013-05-24 06:07:00,
2013-05-24 02:22:00,63.9,63.0,29.76,ENE,71,1.0,-999.0,97,-99.99,,,0.26,weatherlink.com 1.10,2013-05-24 06:22:00,
2013-05-24 02:37:00,63.8,63.0,29.75,East,86,1.0,-999.0,97,-99.99,,,0.37,weatherlink.com 1.10,2013-05-24 06:37:00,
2013-05-24 02:52:00,63.6,63.0,29.74,ESE,104,0.0,-999.0,97,-99.99,,,0.47,weatherlink.com 1.10,2013-05-24 06:52:00,
2013-05-24 03:07:00,63.5,63.0,29.73,SE,133,0.0,-999.0,97,-99.99,,,0.53,weatherlink.com 1.10,2013-05-24 07:07:00,
2013-05-24 03:22:00,63.4,63.0,29.73,East,84,0.0,-999.0,98,-99.99,,,0.56,weatherlink.com 1.10,2013-05-24 07:22:00,
2013-05-24 03:37:00,63.5,63.0,29.72,SSW,192,0.0,-999.0,98,-99.99,,,0.61,weatherlink.com 1.10,2013-05-24 07:37:00,
2013-05-24 03:52:00,63.5,63.0,29.72,ENE,67,0.0,-999.0,98,-99.99,,,0.68,weatherlink.com 1.10,2013-05-24 07:52:00,
2013-05-24 04:07:00,63.5,63.0,29.71,South,182,0.0,-999.0,98,-99.99,,,0.78,weatherlink.com 1.10,2013-05-24 08:07:00,
2013-05-24 04:22:00,63.4,63.0,29.70,NE,52,0.0,-999.0,98,-99.99,,,0.80,weatherlink.com 1.10,2013-05-24 08:22:00,
2013-05-24 04:37:00,63.3,63.0,29.70,East,94,0.0,-999.0,98,-99.99,,,0.81,weatherlink.com 1.10,2013-05-24 08:37:00,
2013-05-24 04:52:00,63.2,63.0,29.69,East,94,0.0,-999.0,98,-99.99,,,0.81,weatherlink.com 1.10,2013-05-24 08:52:00,
2013-05-24 05:07:00,63.1,63.0,29.69,SSE,153,0.0,-999.0,98,-99.99,,,0.82,weatherlink.com 1.10,2013-05-24 09:07:00,
2013-05-24 05:22:00,63.0,63.0,29.69,SSE,152,0.0,-999.0,98,-99.99,,,0.83,weatherlink.com 1.10,2013-05-24 09:22:00,
2013-05-24 05:37:00,62.8,62.0,29.68,SSE,152,0.0,-999.0,98,-99.99,,,0.83,weatherlink.com 1.10,2013-05-24 09:37:00,
2013-05-24 05:52:00,62.6,62.0,29.68,SSE,152,0.0,-999.0,98,-99.99,,,0.83,weatherlink.com 1.10,2013-05-24 09:52:00,
2013-05-24 06:07:00,62.6,62.0,29.68,SSE,152,0.0,-999.0,98,-99.99,,,0.83,weatherlink.com 1.10,2013-05-24 10:07:00,
2013-05-24 06:22:00,62.7,62.0,29.67,SSE,152,0.0,-999.0,98,-99.99,,,0.83,weatherlink.com 1.10,2013-05-24 10:22:00,
2013-05-24 06:37:00,63.0,63.0,29.67,SSE,152,0.0,-999.0,98,-99.99,,,0.83,weatherlink.com 1.10,2013-05-24 10:37:00,
2013-05-24 06:52:00,63.5,63.0,29.66,SSW,205,0.0,-999.0,98,-99.99,,,0.83,weatherlink.com 1.10,2013-05-24 10:52:00,
2013-05-24 07:07:00,63.7,63.0,29.69,SSW,205,0.0,-999.0,98,-99.99,,,0.83,weatherlink.com 1.10,2013-05-24 11:07:00,
2013-05-24 07:22:00,64.0,64.0,29.69,West,260,0.0,-999.0,98,-99.99,,,0.83,weatherlink.com 1.10,2013-05-24 11:22:00,
2013-05-24 07:37:00,64.3,64.0,29.70,WNW,289,0.0,-999.0,98,-99.99,,,0.83,weatherlink.com 1.10,2013-05-24 11:37:00,
2013-05-24 07:52:00,64.4,64.0,29.70,ENE,63,0.0,-999.0,98,-99.99,,,0.83,weatherlink.com 1.10,2013-05-24 11:52:00,
2013-05-24 08:07:00,64.6,64.0,29.71,ESE,104,0.0,-999.0,98,-99.99,,,0.83,weatherlink.com 1.10,2013-05-24 12:07:00,
2013-05-24 08:22:00,64.6,64.0,29.72,East,86,0.0,-999.0,98,-99.99,,,0.83,weatherlink.com 1.10,2013-05-24 12:22:00,
2013-05-24 08:37:00,64.7,64.0,29.73,ENE,58,0.0,-999.0,98,-99.99,,,0.83,weatherlink.com 1.10,2013-05-24 12:37:00,
2013-05-24 08:52:00,65.0,65.0,29.73,ENE,58,0.0,-999.0,98,-99.99,,,0.83,weatherlink.com 1.10,2013-05-24 12:52:00,
2013-05-24 09:07:00,64.9,64.0,29.73,ENE,61,0.0,-999.0,97,-99.99,,,0.84,weatherlink.com 1.10,2013-05-24 13:07:00,
2013-05-24 09:22:00,65.0,64.0,29.73,East,82,0.0,-999.0,97,-99.99,,,0.84,weatherlink.com 1.10,2013-05-24 13:22:00,
2013-05-24 09:37:00,65.2,64.0,29.73,SW,219,0.0,-999.0,97,-99.99,,,0.84,weatherlink.com 1.10,2013-05-24 13:37:00,
2013-05-24 09:52:00,65.8,65.0,29.73,SW,219,0.0,-999.0,98,-99.99,,,0.84,weatherlink.com 1.10,2013-05-24 13:52:00,
2013-05-24 10:08:00,66.5,66.0,29.73,South,180,1.0,-999.0,98,-99.99,,,0.84,weatherlink.com 1.10,2013-05-24 14:08:00,
2013-05-24 10:23:00,66.3,65.0,29.74,NE,39,0.0,-999.0,96,-99.99,,,0.84,weatherlink.com 1.10,2013-05-24 14:23:00,
2013-05-24 10:38:00,66.7,66.0,29.74,NE,41,0.0,-999.0,96,-99.99,,,0.84,weatherlink.com 1.10,2013-05-24 14:38:00,
2013-05-24 10:53:00,67.3,65.0,29.74,ENE,78,2.0,-999.0,93,-99.99,,,0.84,weatherlink.com 1.10,2013-05-24 14:53:00,
2013-05-24 11:08:00,67.9,66.0,29.74,ESE,113,0.0,-999.0,94,-99.99,,,0.84,weatherlink.com 1.10,2013-05-24 15:08:00,
2013-05-24 11:23:00,67.9,66.0,29.75,ESE,111,0.0,-999.0,92,-99.99,,,0.84,weatherlink.com 1.10,2013-05-24 15:23:00,
2013-05-24 11:38:00,68.3,66.0,29.74,SSE,148,1.0,-999.0,91,-99.99,,,0.84,weatherlink.com 1.10,2013-05-24 15:38:00,
2013-05-24 11:53:00,68.6,66.0,29.74,NNW,334,0.0,-999.0,90,-99.99,,,0.84,weatherlink.com 1.10,2013-05-24 15:53:00,
2013-05-24 12:08:00,69.0,65.0,29.73,NNE,17,0.0,-999.0,88,-99.99,,,0.84,weatherlink.com 1.10,2013-05-24 16:08:00,
2013-05-24 12:23:00,69.0,65.0,29.74,NNE,17,0.0,-999.0,88,-99.99,,,0.84,weatherlink.com 1.10,2013-05-24 16:23:00,
2013-05-24 12:38:00,68.9,65.0,29.74,ESE,103,0.0,-999.0,86,-99.99,,,0.84,weatherlink.com 1.10,2013-05-24 16:38:00,
2013-05-24 12:53:00,69.2,65.0,29.73,NE,34,0.0,-999.0,87,-99.99,,,0.84,weatherlink.com 1.10,2013-05-24 16:53:00,
2013-05-24 13:08:00,70.2,66.0,29.73,East,81,0.0,-999.0,85,-99.99,,,0.84,weatherlink.com 1.10,2013-05-24 17:08:00,
2013-05-24 13:23:00,69.2,65.0,29.74,West,279,0.0,-999.0,87,-99.99,,,0.84,weatherlink.com 1.10,2013-05-24 17:23:00,
2013-05-24 13:38:00,66.6,64.0,29.74,West,279,0.0,-999.0,90,-99.99,,,0.86,weatherlink.com 1.10,2013-05-24 17:38:00,
2013-05-24 13:53:00,66.2,65.0,29.74,West,279,0.0,-999.0,94,-99.99,,,0.86,weatherlink.com 1.10,2013-05-24 17:53:00,
2013-05-24 14:08:00,66.3,65.0,29.74,West,279,0.0,-999.0,94,-99.99,,,0.86,weatherlink.com 1.10,2013-05-24 18:08:00,
2013-05-24 14:23:00,65.2,64.0,29.74,NE,55,0.0,-999.0,94,-99.99,,,0.86,weatherlink.com 1.10,2013-05-24 18:23:00,
2013-05-24 14:38:00,64.6,63.0,29.75,NE,55,0.0,-999.0,93,-99.99,,,0.86,weatherlink.com 1.10,2013-05-24 18:38:00,
2013-05-24 14:53:00,63.9,62.0,29.75,NE,53,0.0,-999.0,93,-99.99,,,0.86,weatherlink.com 1.10,2013-05-24 18:53:00,
2013-05-24 15:08:00,63.7,62.0,29.75,North,355,1.0,-999.0,94,-99.99,,,0.86,weatherlink.com 1.10,2013-05-24 19:08:00,
2013-05-24 15:23:00,63.4,61.0,29.75,WSW,246,1.0,-999.0,90,-99.99,,,0.86,weatherlink.com 1.10,2013-05-24 19:23:00,
2013-05-24 15:38:00,63.7,61.0,29.76,WNW,296,0.0,-999.0,90,-99.99,,,0.86,weatherlink.com 1.10,2013-05-24 19:38:00,
2013-05-24 15:53:00,64.9,62.0,29.76,WNW,286,0.0,-999.0,90,-99.99,,,0.86,weatherlink.com 1.10,2013-05-24 19:53:00,
2013-05-24 16:08:00,64.8,60.0,29.76,WNW,300,0.0,-999.0,83,-99.99,,,0.86,weatherlink.com 1.10,2013-05-24 20:08:00,
2013-05-24 16:23:00,63.3,58.0,29.76,NNW,327,1.0,-999.0,84,-99.99,,,0.86,weatherlink.com 1.10,2013-05-24 20:23:00,
2013-05-24 16:38:00,62.9,58.0,29.76,WNW,290,0.0,-999.0,85,-99.99,,,0.86,weatherlink.com 1.10,2013-05-24 20:38:00,
2013-05-24 16:53:00,62.2,58.0,29.77,WNW,290,0.0,-999.0,85,-99.99,,,0.86,weatherlink.com 1.10,2013-05-24 20:53:00,
2013-05-24 17:08:00,62.1,57.0,29.77,NW,326,0.0,-999.0,82,-99.99,,,0.86,weatherlink.com 1.10,2013-05-24 21:08:00,
2013-05-24 17:23:00,61.1,56.0,29.79,North,355,1.0,-999.0,84,-99.99,,,0.86,weatherlink.com 1.10,2013-05-24 21:23:00,
2013-05-24 17:38:00,59.4,55.0,29.79,NNE,23,0.0,-999.0,84,-99.99,,,0.86,weatherlink.com 1.10,2013-05-24 21:38:00,
2013-05-24 17:53:00,57.9,54.0,29.79,NW,315,0.0,-999.0,85,-99.99,,,0.86,weatherlink.com 1.10,2013-05-24 21:53:00,
2013-05-24 18:08:00,56.9,53.0,29.80,NW,308,0.0,-999.0,86,-99.99,,,0.86,weatherlink.com 1.10,2013-05-24 22:08:00,
2013-05-24 18:23:00,56.1,52.0,29.79,WSW,243,0.0,-999.0,86,-99.99,,,0.86,weatherlink.com 1.10,2013-05-24 22:23:00,
2013-05-24 18:38:00,55.8,52.0,29.80,West,281,0.0,-999.0,86,-99.99,,,0.86,weatherlink.com 1.10,2013-05-24 22:38:00,
2013-05-24 18:53:00,54.9,51.0,29.81,WNW,282,0.0,-999.0,85,-99.99,,,0.86,weatherlink.com 1.10,2013-05-24 22:53:00,
2013-05-24 19:08:00,53.9,51.0,29.82,WNW,284,1.0,-999.0,88,-99.99,,,0.86,weatherlink.com 1.10,2013-05-24 23:08:00,
2013-05-24 19:23:00,53.2,50.0,29.82,SW,231,0.0,-999.0,88,-99.99,,,0.86,weatherlink.com 1.10,2013-05-24 23:23:00,
2013-05-24 19:39:00,52.7,49.0,29.83,SW,234,0.0,-999.0,88,-99.99,,,0.86,weatherlink.com 1.10,2013-05-24 23:39:00,
2013-05-24 19:54:00,52.3,50.0,29.84,SW,234,0.0,-999.0,90,-99.99,,,0.86,weatherlink.com 1.10,2013-05-24 23:54:00,
2013-05-24 20:09:00,51.7,49.0,29.84,SW,234,0.0,-999.0,91,-99.99,,,0.86,weatherlink.com 1.10,2013-05-25 00:09:00,
2013-05-24 20:24:00,51.2,49.0,29.84,SW,234,0.0,-999.0,92,-99.99,,,0.87,weatherlink.com 1.10,2013-05-25 00:24:00,
2013-05-24 20:39:00,50.5,49.0,29.85,SW,234,0.0,-999.0,93,-99.99,,,0.90,weatherlink.com 1.10,2013-05-25 00:39:00,
2013-05-24 20:54:00,49.9,48.0,29.85,SW,234,0.0,-999.0,94,-99.99,,,0.92,weatherlink.com 1.10,2013-05-25 00:54:00,
2013-05-24 21:09:00,49.3,48.0,29.86,SW,234,0.0,-999.0,95,-99.99,,,0.94,weatherlink.com 1.10,2013-05-25 01:09:00,
2013-05-24 21:24:00,49.1,48.0,29.86,SW,234,0.0,-999.0,96,-99.99,,,0.95,weatherlink.com 1.10,2013-05-25 01:24:00,
2013-05-24 21:39:00,48.7,48.0,29.86,SW,234,0.0,-999.0,96,-99.99,,,0.96,weatherlink.com 1.10,2013-05-25 01:39:00,
2013-05-24 21:54:00,48.1,47.0,29.86,NW,312,0.0,-999.0,96,-99.99,,,1.01,weatherlink.com 1.10,2013-05-25 01:54:00,
2013-05-24 22:09:00,47.5,47.0,29.86,NW,312,0.0,-999.0,96,-99.99,,,1.06,weatherlink.com 1.10,2013-05-25 02:09:00,
2013-05-24 22:24:00,47.3,46.0,29.86,East,80,0.0,-999.0,96,-99.99,,,1.14,weatherlink.com 1.10,2013-05-25 02:24:00,
2013-05-24 22:39:00,47.2,46.0,29.86,East,80,0.0,-999.0,97,-99.99,,,1.15,weatherlink.com 1.10,2013-05-25 02:39:00,
2013-05-24 22:54:00,47.2,46.0,29.86,East,80,0.0,-999.0,97,-99.99,,,1.16,weatherlink.com 1.10,2013-05-25 02:54:00,
2013-05-24 23:09:00,47.0,46.0,29.86,East,80,0.0,-999.0,97,-99.99,,,1.17,weatherlink.com 1.10,2013-05-25 03:09:00,
2013-05-24 23:24:00,47.0,46.0,29.86,East,80,0.0,-999.0,97,-99.99,,,1.17,weatherlink.com 1.10,2013-05-25 03:24:00,
2013-05-24 23:39:00,47.0,46.0,29.86,East,80,0.0,-999.0,97,-99.99,,,1.17,weatherlink.com 1.10,2013-05-25 03:39:00,
2013-05-24 23:54:00,46.9,46.0,29.86,East,80,0.0,-999.0,97,-99.99,,,1.17,weatherlink.com 1.10,2013-05-25 03:54:00,